Regional Weather Roundup
Issued by NWS

Home | Current Version | Previous Version | Text Only | Print | Product List | Glossary Off
Versions: 1 2 3 4 5 6 7 8 9 10 11 12 13 14 15 16 17 18 19 20 21 22 23 24 25 26 27 28 29 30 31 32 33 34 35 36 37 38 39 40 41 42 43 44 45 46 47 48 49 50

000
ASUS43 KMPX 240510
RWRMN
WEATHER ROUNDUP FOR MINNESOTA
NATIONAL WEATHER SERVICE TWIN CITIES/CHANHASSEN MN
1200 AM CDT TUE MAY 24 2016


NOTE: "FAIR" INDICATES FEW OR NO CLOUDS BELOW 12,000 FEET WITH NO
SIGNIFICANT WEATHER AND/OR OBSTRUCTIONS TO VISIBILITY. N/A MEANS
CURRENT SKY AND/OR WEATHER CONDITIONS ARE NOT AVAILABLE.

MNZ060>063-068>070-240600-
   Twin Cities Metro

CITY           SKY/WX    TMP DP  RH WIND       PRES   REMARKS
TWIN CITIES    LGT RAIN  66  60  81 E10       29.81F
ST PAUL        LGT RAIN  65  60  84 E8        29.82S
CRYSTAL        CLOUDY    63  61  93 SE7       29.79F
BLAINE         MOCLDY    64  64 100 SE6       29.81F
EDEN PRAIRIE   LGT RAIN  66  60  81 E8        29.80F
SOUTH ST PAUL  CLOUDY    67  61  81 CALM      29.82S
LAKE ELMO      RAIN      64  61  88 E3        29.84S
$$
MNZ001>005-007-008-013>017-022>024-027-028-240600-
   Northwest Minnesota

CITY           SKY/WX    TMP DP  RH WIND       PRES   REMARKS
BEMIDJI        CLOUDY    61  55  80 CALM      29.75S
HALLOCK        CLOUDY    61  54  77 S13G23    29.72R
ROSEAU         MOCLDY    70  45  40 NW9       29.73R
WARROAD        CLOUDY    63  50  63 W5        29.74R
THIEF RVR FALL CLOUDY    63  52  67 N12       29.75R
CROOKSTON      CLOUDY    64  52  63 N12       29.74R
FOSSTON          N/A     63  55  77 CALM      29.74S
DETROIT LAKES  TSTM      63  54  72 SW22G32   29.77R
MOORHEAD       CLOUDY    68  52  56 SE5       29.72R
PARK RAPIDS    MOCLDY    67  59  75 E5        29.76R
MAHNOMEN       CLOUDY    66  55  66 SE6       29.72S
$$
MNZ006-009>011-018-025>026-240600-
   North Central Minnesota

CITY           SKY/WX    TMP DP  RH WIND       PRES   REMARKS
BAUDETTE       CLOUDY    55  50  83 CALM      29.73R
FLAG ISLAND    CLOUDY    61  55  82 SE3       29.70S
INTL FALLS     CLOUDY    54  52  93 SE3       29.74R
WASKISH        MOCLDY    57  55  94 MISG      29.75R
BIG FORK       CLOUDY    55  54  94 CALM      29.76S
LONGVILLE      CLOUDY    63  61  94 CALM      29.76F
GRAND RAPIDS     N/A    N/A N/A N/A MISG        N/A
CRANE LAKE     CLOUDY    57  55  94 CALM      29.78R
ORR            CLOUDY    61  57  88 CALM      29.74R
COOK           CLOUDY    63  61  94 CALM      29.77S
WALKER         LGT RAIN  62  61  96 SE3       29.76S
$$
MNZ012-019>021-037-240600-
   Northeast Minnesota

CITY           SKY/WX    TMP DP  RH WIND       PRES   REMARKS
DULUTH         CLOUDY    61  59  93 S12       29.80R
ELY            HVY RAIN  61  59  94 NW5       29.80R
HIBBING        CLOUDY    62  58  86 CALM      29.77S
EVELETH        CLOUDY    63  57  82 SW3       29.80S
DULUTH HARBOR  RAIN      61  61 100 SE3       29.79F
TWO HARBORS    LGT RAIN  64  61  88 SW6       29.80R
SILVER BAY     LGT RAIN  63  61  94 SW5       29.77R
GRAND MARAIS     N/A     51  49  92 CALM      29.78F
G MARAIS ARPRT LGT RAIN  59  55  88 CALM      29.82F
$$
MNZ029>031-032-039>041-046>048-054>057-064-240600-
   West Central Minnesota

CITY           SKY/WX    TMP DP  RH WIND       PRES   REMARKS
FERGUS FALLS   CLOUDY    68  54  60 SW5       29.70R
WHEATON        CLOUDY    66  55  68 S7        29.75R
MORRIS         CLOUDY    64  54  68 SW6       29.73S
ALEXANDRIA     LGT RAIN  64  62  93 SE5       29.76S
ELBOW LAKE     FAIR      63  54  71 E7        29.74R
WADENA         CLOUDY    64  61  88 S9        29.74S
GLENWOOD       CLOUDY    63  61  94 SE5       29.76S
APPLETON       PTCLDY    64  55  72 S3        29.74S
BENSON         CLOUDY    63  57  82 CALM      29.74S
ORTONVILLE     CLOUDY    64  55  72 SW3       29.74S
MADISON        PTCLDY    61  55  82 S3        29.74F
WILLMAR        FAIR      66  61  82 S3        29.76F
$$
MNZ033>034-036-042>043-049>051-058-059-240600-
   Central Minnesota

CITY           SKY/WX    TMP DP  RH WIND       PRES   REMARKS
ST CLOUD       CLOUDY    63  61  93 SE12      29.76F
SAUK CENTRE    MOCLDY    63  61  94 S8        29.76S
PAYNESVILLE    CLOUDY    64  61  91 S7        29.77F
AITKIN         CLOUDY    64  59  82 SE5       29.76S
PINE RIVER     CLOUDY    63  61  94 SE5       29.79F
BRAINERD       MOCLDY    61  61 100 S5        29.76F
STAPLES        CLOUDY    63  61  94 S6        29.75S
LONG PRAIRIE   FAIR      61  59  94 SE5       29.76F
LITTLE FALLS   CLOUDY    61  59  94 SE3       29.76F
LITCHFIELD     CLOUDY    64  64 100 SE6       29.78F
BUFFALO        CLOUDY    62  60  93 E5        29.79F
MAPLE LAKE     CLOUDY    64  63  97 CALM      29.80S
HUTCHINSON     CLOUDY    64  63  97 E5        29.79F
$$
MNZ037-044-045-052-053-240600-
   East Central Minnesota

CITY           SKY/WX    TMP DP  RH WIND       PRES   REMARKS
PRINCETON        N/A     63  61  94 S3        29.78S
MORA           CLOUDY    61  59  94 SE5       29.79F
CAMBRIDGE      LGT RAIN  64  55  72 S5        29.75F
RUSH CITY      CLOUDY    62  59  91 S9        29.77F
MOOSE LAKE     HVY RAIN  63  61  94 S6        29.79F
HINCKLEY       LGT RAIN  63  61  94 W10G17    29.80S
CLOQUET        LGT RAIN  61  57  88 SE5       29.80S
MCGREGOR       CLOUDY    61  59  94 CALM      29.79S
$$
MNZ071>073-080-081-089-090-097-098-240600-
   Southwest Minnesota

CITY           SKY/WX    TMP DP  RH WIND       PRES   REMARKS
MONTEVIDEO     CLOUDY    64  61  88 SW6       29.76F
GRANITE FALLS  MOCLDY    65  61  87 S8        29.76F
CANBY          CLOUDY    64  60  87 CALM      29.75F
MARSHALL       CLOUDY    64  61  90 S6        29.76F
REDWOOD FALLS  CLOUDY    64  60  87 S6        29.76S
OLIVIA         MOCLDY    59  55  88 S5        29.75F
PIPESTONE      CLOUDY    63  61  94 SW7       29.79R
WINDOM         CLOUDY    64  61  88 S5        29.80R
WORTHINGTON    CLOUDY    63  61  93 S13       29.81R
JACKSON        CLOUDY    64  59  82 S9        29.81S
TRACY          CLOUDY    64  63  94 SW12      29.76F
SLAYTON        MOCLDY    63  62  98 S10       29.80R
$$
MNZ065>067-074>077-082>085-091>093-240600-
   South Central Minnesota

CITY           SKY/WX    TMP DP  RH WIND       PRES   REMARKS
MANKATO        CLOUDY    66  61  82 SE8       29.81S
NEW ULM        CLOUDY    64  63  94 SW3       29.78S
ST JAMES       CLOUDY    61  57  88 SE15      29.80R
FAIRMONT       CLOUDY    64  61  88 S10       29.81R
GLENCOE        CLOUDY    64  64 100 E3        29.79S
FARIBAULT      MOCLDY    68  61  77 SW8       29.82R
OWATONNA       MOCLDY    70  57  64 S9G16     29.82S
WASECA         RAIN      64  59  82 S12       29.84R
ALBERT LEA     CLOUDY    68  61  77 S10       29.82F
$$
MNZ078>079-086>088-094>096-240600-
   Southeast Minnesota

CITY           SKY/WX    TMP DP  RH WIND       PRES   REMARKS
ROCHESTER      CLOUDY    64  62  93 SW6       29.86R
RED WING       LGT RAIN  64  63  94 CALM      29.83S
STANTON        CLOUDY    68  60  75 W5        29.82R
DODGE CENTER   PTCLDY    64  61  88 S14       29.83F
WINONA         CLOUDY    70  63  78 CALM      29.85S
AUSTIN         CLOUDY    64  61  88 CALM      29.86R
PRESTON        CLOUDY    62  60  94 SW3       29.87S
$$
ABBREVIATIONS USED IN REMARKS
   TC - TEMPERATURES IN CELSIUS
  WCI - WIND CHILL INDEX
   HX - HEAT INDEX
  VSB - VISIBILITY
$$



USA.gov is the U.S. government's official web portal to all federal, state and local government web resources and services.